Weather History for Oxnard, CA

Change the Weather History Date:

Sunday, September 15, 2013

  Actual Average Record
Temperature  
Mean Temperature 64 °F -  
Max Temperature 72 °F 73 °F 88 °F (1958)
Min Temperature 57 °F 57 °F 46 °F (1952)
Growing Degree Days 14 (Base 50)    
Moisture  
Dew Point 59 °F    
Average Humidity 84    
Maximum Humidity 96    
Minimum Humidity 61    
Precipitation  
Precipitation 0.00 in - - ()
Sea Level Pressure  
Sea Level Pressure 29.74 in    
Wind  
Wind Speed 4 mph (West)    
Max Wind Speed 17 mph    
Max Gust Speed -    
Visibility 8 miles    
Events      
Averages and records for this station are not official NWS values.
T = Trace of Precipitation, MM = Missing Value Source: NWS Daily Summary

Daily Weather History Graph

Daily Weather History Graph

Search for Another Location

Airport:

Trip Planner

Search our weather history database for the weather conditions in past years. The results will help you decide how hot, cold, wet, or windy it might be!

Date:

Astronomy

Sep. 15, 2013 Rise Set
Actual Time 6:40 AM PDT 7:02 PM PDT
Civil Twilight 6:15 AM PDT 7:28 PM PDT
Nautical Twilight 5:45 AM PDT 7:57 PM PDT
Astronomical Twilight 5:15 AM PDT 8:27 PM PDT
Moon 4:26 PM PDT (9/15) 2:32 AM PDT (9/15)
Length of Visible Light 13h 12m
Length of Day
12h 22m
Waxing Gibbous, 83% of the Moon is Illuminated
Sep 15
Waxing Gibbous
Sep 19
Full
Sep 26
Last Quarter
Oct 4
New
Oct 11
First Quarter

Hourly Weather History & Observations

Time (PDT) Temp. Dew Point Humidity Pressure Visibility Wind Dir Wind Speed Gust Speed Precip Events Conditions
12:51 AM 61.0 °F 59.0 °F 93% 29.68 in 6.0 mi Calm Calm - N/A   Clear
1:51 AM 60.1 °F 57.9 °F 93% 29.70 in 6.0 mi Calm Calm - N/A   Clear
2:51 AM 59.0 °F 57.9 °F 96% 29.70 in 6.0 mi Calm Calm - N/A   Clear
3:51 AM 59.0 °F 57.9 °F 96% 29.70 in 7.0 mi ESE 3.5 mph - N/A   Clear
4:51 AM 59.0 °F 57.0 °F 93% 29.70 in 7.0 mi Calm Calm - N/A   Clear
5:51 AM 57.9 °F 55.9 °F 93% 29.72 in 7.0 mi Calm Calm - N/A   Clear
6:51 AM 57.9 °F 55.9 °F 93% 29.73 in 7.0 mi Calm Calm - N/A   Clear
7:51 AM 60.1 °F 57.9 °F 93% 29.75 in 7.0 mi Calm Calm - N/A   Clear
8:51 AM 66.0 °F 61.0 °F 84% 29.76 in 7.0 mi Calm Calm - N/A   Clear
9:51 AM 69.1 °F 61.0 °F 75% 29.76 in 8.0 mi WNW 4.6 mph - N/A   Clear
10:51 AM 69.1 °F 60.1 °F 73% 29.77 in 8.0 mi West 10.4 mph - N/A   Clear
11:51 AM 69.1 °F 59.0 °F 70% 29.78 in 9.0 mi West 12.7 mph - N/A   Clear
12:51 PM 72.0 °F 57.9 °F 61% 29.77 in 10.0 mi West 13.8 mph - N/A   Clear
1:51 PM 71.1 °F 60.1 °F 68% 29.76 in 8.0 mi West 15.0 mph - N/A   Clear
2:51 PM 70.0 °F 57.9 °F 65% 29.74 in 9.0 mi WNW 17.3 mph - N/A   Clear
3:51 PM 70.0 °F 57.9 °F 65% 29.73 in 9.0 mi West 16.1 mph - N/A   Clear
4:51 PM 68.0 °F 59.0 °F 73% 29.73 in 8.0 mi West 12.7 mph - N/A   Clear
5:51 PM 64.9 °F 59.0 °F 81% 29.72 in 8.0 mi WNW 10.4 mph - N/A   Clear
6:51 PM 64.0 °F 59.0 °F 84% 29.72 in 8.0 mi West 5.8 mph - N/A   Clear
7:51 PM 62.1 °F 59.0 °F 90% 29.73 in 8.0 mi Calm Calm - N/A   Clear
8:51 PM 62.1 °F 59.0 °F 90% 29.74 in 8.0 mi West 3.5 mph - N/A   Clear
9:51 PM 61.0 °F 59.0 °F 93% 29.75 in 8.0 mi Calm Calm - N/A   Clear
10:51 PM 61.0 °F 59.0 °F 93% 29.75 in 6.0 mi WNW 3.5 mph - N/A   Clear
11:51 PM 61.0 °F 59.0 °F 93% 29.76 in 7.0 mi Calm Calm - N/A   Clear